SL-16 DEB, 18416

Orbit data source: Space-Track

SL-16 DEB, 18416 is space debris in LEO originally from a launch on Wed, 18 Mar 1987 UTC launched from the Tyuratam Missile And Space Complex (TTMTR). Debris objects in space refer to the collection of defunct objects orbiting the Earth. Examples of debris include non-operational satellites, rocket bodies, and fragments generated from explosions, collisions, or faulty payload assembly.

Loading next visibility...
Identifier
18416, 1987-027C
Orbit
LEO
Country
Flag of CISCIS
Related business
Manufacturer
Yuzhnoe
Mission
Spacecraft
Bus & Motor
SEP MOTOR COVER, Unknown motor
Mass
~0 kg wet, ~1 kg dry
Launch date (UTC)
1987-03-18 (39 years ago)
Launch vehicle
Unknown
Launch site
Tyuratam Missile And Space Complex (TTMTR)
Object type
Payload
Rocket body
Debris
Shape & HBR
Unknown shape, 0.2 m
Radar Cross Section
Small (<0.1 m²)

Expand to show TLE details & history
Last TLE update: 8 hours ago

TLE from 8 hours ago
0 SL-16 DEB
1 18416U 87027C   25304.55527380  .00000060  00000-0  90276-4 0  9997
2 18416  71.0367 347.6627 0184779  62.0870  92.7246 13.77492832940201
Epoch: 2025-10-31T13:19Z
TLE epoch observation values (Epoch: 2025-10-31T13:19:35.656Z)
Latitude
21.77915°
Longitude
-80.18371°
Altitude
983.868 km
Speed
7.357 km/s
True Right ascension
10h 39m 15s
True Declination
21° 39' 52"
Sunlit
Object was in daylight at epoch
Visualization orbit readout
Latitude
Unknown
Longitude
Unknown
Altitude
Unknown
Speed
Unknown
Apparent Right ascension
Unknown
Apparent Declination
Unknown
Sunlit
N/A
Visualization observer readout
Local Sidereal Time
16:52:20
Azimuth
Unknown
Elevation
Unknown
Doppler factor
Unknown
Orbital elements
Apogee altitude
1,106.542 km
Perigee altitude
834.958 km
Semi-major axis
7,348.887 km
Eccentricity
0.01848
Inclination
71.0367°
RAAN
347.6627°
Arg. of periapsis
62.087°
True anomaly
94.83682°
Mean anomaly
92.7246°
Eccentric anomaly
93.781°
Mean motion
3.44517 °/min
Orbital period
104.49 mins
BSTAR
0.000090276
Loading maneuver chart data...
Computing Atmospheric mass density...
Loading historical data...
Loading historical data...
Loading historical data...
Loading historical data...
Loading historical data...
Loading historical data...
Loading historical data...

Documentation

Showing up to 5 results
|